Regional Weather Roundup
Issued by NWS Upton, NY

Current Version | Previous Version | Text Only | Print | Product List | Glossary On
Versions: 1 2 3 4 5 6 7 8 9 10 11 12 13 14 15 16 17 18 19 20 21 22 23 24 25 26 27
000
ASUS41 KOKX 260009
RWROKX

REGIONAL WEATHER ROUNDUP
NATIONAL WEATHER SERVICE NEW YORK NY
800 PM EDT SUN JUN 25 2017

NOTE: "FAIR" INDICATES FEW OR NO CLOUDS BELOW 12,000 FEET WITH NO
SIGNIFICANT WEATHER AND/OR OBSTRUCTIONS TO VISIBILITY.

NYZ071-072-176-178-NJZ106-104-260100-
NEW YORK CITY METRO AREA

CITY           SKY/WX    TMP DP  RH WIND       PRES   REMARKS
Central Park   PTCLDY    76  60  57 VRB3      29.95S
Bronx Bot Gard   N/A     75  59  57 NE3       29.93R
LaGuardia APRT PTCLDY    77  63  61 S8        29.92S
Kennedy INTL   MOCLDY    72  67  84 S16       29.94R
Breezy Point     N/A     66 N/A N/A S13         N/A
Newark/Liberty PTCLDY    82  54  37 W10       29.92R
Teterboro      PTCLDY    80  53  39 W10       29.91R
$$

NYZ177-179-078>081-260100-
LONG ISLAND NEW YORK

CITY           SKY/WX    TMP DP  RH WIND       PRES   REMARKS
Jones Beach      N/A     70 N/A N/A S9G15       N/A
Matinecock PT  NOT AVBL
Farmingdale    NOT AVBL
MacArthur/ISP  MOCLDY    74  60  61 SW8       29.95R
Shirley        CLOUDY    73  62  68 S7        29.96R
Mt Sinai Harb    N/A     68 N/A N/A S5          N/A
Westhampton    LGT RAIN  73  58  59 SW7       29.98R
East Hampton   FAIR      70  59  67 SW5       29.95R
Montauk          N/A     71  62  73 VRB3      29.96S
$$

NYZ052-065-067-260100-
HUDSON VALLEY

CITY           SKY/WX    TMP DP  RH WIND       PRES   REMARKS
White Plains   NOT AVBL
Larchmont Harb   N/A     72 N/A N/A S13         N/A
Croton O-T Hud   N/A     77 N/A N/A S6          N/A
Newburgh       PTCLDY    75  57  53 W8        29.93R
Montgomery     PTCLDY    75  55  49 W5        29.92R
Poughkeepsie   MOCLDY    76  55  48 W3        29.90R
Albany         CLOUDY    65  57  75 N6        29.93F
$$

NJZ001-105-106-008-010-013-015-019>022-104-260100-
NEW JERSEY

CITY           SKY/WX    TMP DP  RH WIND       PRES   REMARKS
Newark/Liberty PTCLDY    82  54  37 W10       29.92R
Teterboro      PTCLDY    80  53  39 W10       29.91R
Caldwell       CLEAR     79  59  50 CALM      29.93S
Somerville     NOT AVBL
Linden         NOT AVBL
Perth Amboy      N/A     81 N/A N/A W8          N/A
Sussex         CLEAR     76  51  41 W5        29.94R
Andover          N/A     71  58  63 CALM      29.95R
Trenton        PTCLDY    79  56  45 NW3       29.94R
Millville      CLOUDY    77  65  66 VRB3      29.97R
Atlantic City  PTCLDY    77  58  51 S8        29.97
Wrightstown    MOCLDY    81  59  47 SW7       29.94R
Toms River     CLEAR     74  62  66 S6        29.96R
Belmar         MOCLDY    76  64  66 S3        29.95S
$$

PAZ047>061-062-071-260100-
EASTERN PENNSYLVANIA

CITY           SKY/WX    TMP DP  RH WIND       PRES   REMARKS
Philadelphia   MOCLDY    83  52  34 W13       29.96R
Allentown      CLEAR     77  50  38 W9        29.95R
Scranton       MOCLDY    75  47  36 SW12      29.96R
$$

CTZ002-004>006-009-010-012-RIZ004-006-007-MAZ004-011-015-260100-
SOUTHERN NEW ENGLAND
 IN CT

CITY           SKY/WX    TMP DP  RH WIND       PRES   REMARKS
Bradley INTL   PTCLDY    75  60  59 S9        29.90R
Hartford       CLEAR     76  57  51 S12G17    29.90R
Danbury        CLEAR     73  59  61 S9        29.94S
Wtrbury/Oxford PTCLDY    72  55  56 SW7       29.95S
Bridgeport     CLEAR     75  62  64 SW7       29.93R
Meriden        CLEAR     73  60  63 S7        29.93R
New Haven      PTCLDY    70  63  78 S6        29.93S
Chester        FAIR      72  59  64 S5        29.95R
Groton         PTCLDY    71  60  68 SW8       29.93S
Wilimantic     CLOUDY    77  58  51 S7        29.92R

 IN RI

CITY           SKY/WX    TMP DP  RH WIND       PRES   REMARKS
Providence     MOCLDY    74  60  61 S6        29.92S
Block Island   PTCLDY    69  63  81 SW13      29.96R
Westerly       CLEAR     73  57  57 SW7       29.94R
 IN MA

CITY           SKY/WX    TMP DP  RH WIND       PRES   REMARKS
Boston         PTCLDY    74  57  55 SW17      29.88S
Worcester      CLEAR     70  56  61 SW7       29.92S
Westfield      LGT RAIN  72  55  55 N29G35    29.91R
Provincetown   CLOUDY    68  60  75 S7        29.92F
Nantucket      PTCLDY    64  61  90 SW9       29.95R
$$

ANZ330-335-338-340-345-350-353-355-260100-
COASTAL MARINE OBSERVATIONS


STATION/POSITION TIME  SKY/WX   TEMP    WIND        PRES    VSBY  WAVE
                                AIR SEA DIR/SP/G                  HT/PER
                 (UTC)          (F)     (DEG/KT/KT) (MB)    (MI)  (FT/S)
NY HARB ENTRANCE 2350            70 69  200/ 16/ 17 1013.3          2/ 8
20 S FIRE ISLAND 2350            71 70  190/ 14/ 16 1013.2          3/ 7
GREAT SOUTH BAY  2315            73 77  280/  4/  6   N/A
23 SSW MONTAUK P 2350            69 67              1014.3          3/ 7
15 E BARNEGAT LI 2330               66                N/A           3/ 8
HUDSON CANYON    2250            70 69  200/  8/ 10 1014.0          3/ 8
KINGS POINT      2330            73 70  200/ 12/ 14 1013.3
EXECUTION ROCKS  2345            74     160/ 10/ 12   N/A
CENTRAL LI SOUND NOT AVBL
EASTERN LI SOUND NOT AVBL
ROBBINS REEF     2324                   150/  7/  8 1013.7
$$


>>>>>>>>>>>>>>>>>>>>>>>>>>>> KEY <<<<<<<<<<<<<<<<<<<<<<<<<<<
>                                                          <
>     SKY/WX - Sky Condition/Present Weather               <
>     TMP    - Temperature in Fahrenheit                   <
>     DP     - Dew Point in Fahrenheit                     <
>     RH     - Relative Humidity in Percent                <
>     WIND   - Direction (from) and Speed in MPH           <
>     PRES   - Mean Sea Level Pressure (inches of Hg)      <
>     WCI    - Wind Chill Index                            <
>     VSB    - VISIBILITY IN MILES                         <
>     HX     - HEAT INDEX                                  <
>     TC     - TEMPERATURE IN CELSIUS                      <
>     VRB    - VARIABLE WIND DIRECTION                     <
>                                                          <
>>>>>>>>>>>>>>>>>>>>>>>>>>>> KEY <<<<<<<<<<<<<<<<<<<<<<<<<<<




USA.gov is the U.S. government's official web portal to all federal, state and local government web resources and services.